Flag for U.S.A. Weather past 2 weeks in Pomona, California, U.S.A.

Now
61 °F

Sunny.


Feels Like: 61 °F
Forecast: 61 / 93 °F
Wind: No wind

Location: Chino Airport

Current Time: Oct 2, 2014 at 9:11:19 AM

Latest Report: Oct 2, 2014 at 7:53 AM


Visibility: 10 mi

Pressure: 29.97 "Hg

Humidity: 78%

Dew point: 54 °F

Location of PomonaLocation

Historic Weather in Pomona — Graph

°F

Pomona temperature yesterday

Maximum temperature yesterday: 89 °F (at 2:53 PM)
Minimum temperature yesterday: 57 °F (at 5:53 AM)
Average temperature yesterday: 71 °F

Past Weeks' High & Low Weather Summary

 TemperatureHumidityPressure
High100 °F (Sep 17, 12:53 PM)96% (Sep 23, 5:53 AM)30.01 "Hg (Sep 23, 5:53 AM)
Low54 °F (Oct 2, 5:53 AM)14% (Sep 24, 2:53 PM)29.68 "Hg (Sep 17, 4:53 PM)
Average73 °F62%29.87 "Hg
* Reported Sep 17 7:53 AM — Oct 2 7:53 AM, Pomona, Weather by CustomWeather, © 2014

Note: Actual official high and low records may vary slightly from our data, if they occured in-between our weather recording intervals... More about our weather records

Advertising

Pomona weather history for previous 24 hours

 ConditionsComfort  
Time TempWeatherWind HumidityBarometerVisibility
7:53 AM
Oct 2
61 °FSunny.No wind78%29.97 "Hg10 mi
6:53 AM57 °FClear.3 mph90%29.96 "Hg10 mi
5:53 AM54 °FFog.3 mph93%29.93 "Hg5 mi
4:53 AM57 °FFog.No wind90%29.91 "Hg6 mi
3:53 AM59 °FFog.3 mph90%29.90 "Hg6 mi
2:53 AM59 °FFog.No wind90%29.89 "Hg5 mi
1:53 AM59 °FFog.No wind90%29.89 "Hg6 mi
12:53 AM63 °FClear.3 mph84%29.89 "Hg6 mi
11:53 PM
Oct 1
62 °FClear.No wind80%29.89 "Hg7 mi
10:53 PM64 °FFog.No wind87%29.88 "Hg6 mi
9:53 PM65 °FClear.No wind81%29.88 "Hg9 mi
8:53 PM70 °FClear.3 mph68%29.85 "Hg10 mi
7:53 PM70 °FClear.5 mph68%29.83 "Hg10 mi
6:53 PM73 °FSunny.7 mph62%29.80 "Hg10 mi
5:53 PM80 °FSunny.13 mph47%29.78 "Hg10 mi
4:53 PM85 °FSunny.14 mph40%29.76 "Hg10 mi
3:53 PM88 °FSunny.12 mph35%29.75 "Hg10 mi
2:53 PM89 °FSunny.10 mph30%29.75 "Hg10 mi
1:53 PM87 °FSunny.10 mph32%29.75 "Hg10 mi
12:53 PM86 °FSunny.8 mph35%29.78 "Hg10 mi
11:53 AM81 °FSunny.7 mph42%29.80 "Hg10 mi
10:53 AM76 °FSunny.3 mph48%29.82 "Hg10 mi
9:53 AM72 °FSunny.No wind57%29.83 "Hg10 mi
Weather by CustomWeather, © 2014

See weather overviewHow to use our weather pages